Location: Nairn
(57.5833°N, 3.8667°W)
Time: 19:21:34
(UTC+00:00)

Cosmos 44 Rocket - Pass Details

Date: 07 August 2020
Orbit: 647 x 743 km, 65.1° (Epoch: 24 September)

Event Time Altitude Azimuth Distance (km) Brightness Sun altitude
Rises 00:44:52 0° 309° (NW) 3,072 7.1 -15.9°
Reaches altitude 10° 00:47:12 10° 305° (NW) 2,168 6.2 -15.9°
Maximum altitude 00:52:02 55° 229° (SW) 855 3.5 -15.8°
Enters shadow 00:55:07 22° 159° (SSE) 1,543 4.6 -15.7°
